Dewpoint
36 31 27 27 29 24 24 24 22 28 37 37 41 42 42 42 38 42 47 52 54 55 55 53 54 59 58 57 57 58 59 60 60 59 58 57 57 57 56 57 57 58 57 56
34 27 26 26 27 30 29 25 23 25 35 36 37 38 40 42 42 41 43 51 53 54 55 55 52 58 58 57 56 56 58 58 59 59 59 58 57 55 56 56 56 57 56 55
29 28 30 25 24 27 28 26 24 21 29 32 33 34 39 41 41 42 42 47 52 52 54 55 52 54 57 57 56 55 56 58 58 58 58 54 53 52 53 54 55 54 55 53
33 32 29 28 25 25 23 28 26 25 26 22 36 30 35 41 40 40 41 41 50 52 54 54 55 52 54 56 56 56 55 56 57 58 57 56 56 55 55 57 55 53 53 52
30 31 31 29 28 27 24 26 26 26 25 27 25 26 32 38 39 40 41 41 43 51 53 54 55 55 52 53 55 55 55 55 57 57 57 56 56 56 52 51 53 53 51 51
33 35 33 30 30 29 29 27 27 27 29 21 22 25 26 34 36 38 40 41 41 47 51 54 55 55 55 52 53 54 55 55 56 57 57 56 56 54 51 51 53 53 49 49
32 32 35 32 30 31 29 28 13 19 20 15 20 26 23 34 36 39 40 41 41 42 48 52 54 55 55 54 52 53 54 54 55 56 56 56 56 56 54 52 54 52 48 46
26 23 33 36 30 26 30 28 23 15 17 13 18 26 33 37 37 38 39 40 41 41 43 47 52 54 55 55 53 53 53 53 55 55 56 56 56 56 55 54 54 53 52 51
28 27 33 35 34 27 28 26 25 25 28 27 31 36 37 26 20 19 22 34 39 40 42 46 49 53 54 54 54 53 53 53 54 55 56 56 57 56 56 54 54 54 53 50
31 25 32 34 35 32 32 29 25 26 19 23 30 33 27 18 19 21 22 25 27 31 41 45 49 52 53 54 54 53 54 53 54 55 56 56 57 57 56 54 53 52 50 47
32 31 30 33 31 27 30 29 30 26 23 25 26 23 16 19 21 22 26 30 33 35 39 44 49 52 54 54 54 53 54 54 54 55 56 56 57 57 56 54 53 51 49 47
34 31 28 29 33 36 36 32 28 24 28 25 24 15 22 22 23 27 30 33 35 38 41 43 46 48 52 53 54 54 54 54 55 56 56 57 57 57 55 54 52 51 49 47
36 31 26 26 32 36 34 36 35 29 32 31 29 17 32 37 25 26 30 31 33 35 38 41 44 46 47 49 51 54 55 55 55 56 57 57 57 57 56 54 53 51 50 48
39 32 30 26 29 34 32 34 36 35 31 28 29 27 36 39 28 26 27 27 28 29 31 34 38 41 44 46 48 50 51 53 54 56 56 57 57 56 56 56 54 52 51 49
36 30 31 32 33 34 33 33 34 33 34 32 30 33 37 40 33 28 28 28 28 29 30 31 32 33 35 41 44 47 49 51 52 54 56 57 56 57 56 54 52 51 50 49
37 30 32 29 32 32 29 30 34 34 34 34 35 33 39 36 32 31 29 30 30 30 31 31 32 32 33 35 39 43 45 47 49 50 50 50 51 51 51 50 49 48 46 44
34 31 26 25 30 31 24 28 30 29 28 32 31 34 38 32 31 32 31 30 31 31 31 31 32 32 33 35 37 41 43 45 45 46 46 45 45 44 43 43 43 42 43 42
33 30 26 22 26 18 29 32 31 26 26 30 30 29 36 34 33 31 30 29 29 29 30 31 31 32 33 33 33 36 43 43 44 44 44 41 41 42 40 41 41 39 39 39
31 31 25 20 19 28 29 28 28 24 21 21 24 27 28 37 36 27 29 29 27 28 30 31 31 31 31 31 32 34 37 39 40 40 41 40 39 39 38 37 37 36 36 35
25 26 22 16 16 14 29 29 27 27 19 21 26 26 25 29 25 25 28 28 27 28 29 29 30 31 29 28 30 33 33 35 34 34 36 38 38 38 38 37 36 34 34 34
15 13 23 23 13 22 27 28 27 22 22 23 26 27 26 25 25 26 29 27 26 28 28 27 28 27 26 26 28 30 30 29 29 31 32 34 35 36 37 36 33 34 34 33
21 11 21 17 8 13 29 27 25 27 27 27 28 28 26 26 26 26 27 26 25 26 26 25 25 25 24 23 25 26 26 26 27 29 31 33 34 33 32 34 32 33 34 34
12 22 17 22 25 28 29 29 29 29 28 29 28 29 29 27 27 26 27 26 25 25 24 23 22 22 21 20 22 22 22 23 23 28 29 31 33 32 33 33 32 33 33 33
21 26 25 15 18 25 26 28 28 29 29 28 27 28 29 28 27 27 27 26 24 23 21 19 18 17 17 16 18 18 20 20 22 27 29 28 28 30 32 32 33 33 33 32
19 21 17 20 20 23 26 28 27 27 27 27 28 28 28 27 26 25 27 25 23 21 17 14 12 12 12 12 14 15 17 18 24 26 29 28 27 30 32 31 30 31 30 34
23 19 18 11 20 21 25 26 26 27 27 28 27 27 26 26 26 23 22 19 18 16 14 13 12 11 12 13 15 17 17 17 21 25 27 28 27 29 30 30 30 33 33 34
Lifted_Index
7 5 4 5 5 5 6 6 6 6 4 2 1 2 3 2 2 1 1 1 -0 -1 -1 -1 -1 -1 -1 -0 0 1 1 2 3 4 4 4 4 5 5 5 4 3 3 2
6 5 5 6 6 6 5 5 5 6 4 2 1 2 3 3 2 2 1 1 0 -1 -1 -1 -1 -1 -1 -0 -0 0 1 2 3 3 3 3 4 5 5 4 4 3 3 2
5 5 6 6 6 5 4 4 5 5 4 2 1 2 3 3 3 2 2 2 1 0 -0 -1 -1 -1 -1 -0 -0 0 1 1 2 3 3 3 3 4 4 4 4 3 3 2
6 5 5 5 5 4 3 3 3 4 4 3 2 2 2 3 3 3 3 2 2 1 0 -0 -1 -1 -1 -1 -0 1 1 1 2 2 3 3 3 4 4 4 4 3 2 2
5 5 5 4 4 3 3 2 2 3 3 3 2 2 2 3 3 3 3 3 2 1 1 0 0 -0 -1 -1 -0 1 1 2 2 2 3 3 3 3 4 4 3 3 2 2
5 5 5 4 3 3 2 2 2 2 2 2 2 2 3 3 3 3 3 3 2 2 1 1 0 -0 -0 -1 -1 0 1 2 2 2 2 2 2 3 3 4 3 3 2 2
4 4 4 3 3 2 2 1 1 1 1 1 2 2 2 2 3 3 3 2 2 2 1 1 1 0 -0 -0 -1 -0 1 2 2 2 2 2 2 2 3 3 3 3 2 2
3 3 3 3 2 2 1 1 1 0 0 1 2 2 2 2 2 2 2 2 2 2 2 1 1 0 0 -0 -1 -1 0 1 2 2 2 2 2 2 2 2 2 2 2 2
2 2 3 3 3 2 1 1 1 1 1 1 1 1 1 1 2 2 2 2 2 2 2 2 1 1 0 0 -0 -0 -0 0 1 1 1 1 1 2 2 2 2 2 2 2
2 2 2 3 3 2 2 2 2 2 2 1 0 1 1 1 1 1 1 1 2 2 2 2 1 1 0 0 0 -0 -0 -0 0 0 0 1 1 1 1 1 2 2 2 2
2 2 2 2 2 2 2 2 3 3 2 1 0 1 2 3 2 2 1 1 2 1 2 2 1 1 -0 -0 0 -0 -1 -1 -0 0 0 1 1 1 1 1 1 2 2 2
3 2 1 1 2 2 2 2 3 3 3 2 1 2 4 5 4 3 2 2 2 1 1 2 2 1 0 -0 -0 -0 -1 -1 -1 -0 0 0 1 1 1 1 1 1 1 1
3 2 1 1 1 2 2 2 3 3 2 1 1 2 4 5 5 5 4 3 2 2 2 2 2 2 1 0 -0 -1 -1 -1 -1 -1 -0 0 0 1 1 1 1 1 1 1
2 2 1 1 1 1 2 2 3 2 2 1 1 2 3 5 5 5 5 5 4 4 4 3 2 3 2 2 1 0 0 -0 -1 -0 -0 0 1 1 1 1 1 1 2 2
2 2 1 1 1 1 1 2 2 2 2 1 1 2 3 4 5 5 5 6 6 6 6 5 5 5 4 4 3 2 1 1 0 -0 -0 -0 0 0 1 1 1 1 1 2
2 2 1 1 1 1 1 2 2 2 2 1 1 2 3 4 4 4 5 5 6 6 6 7 7 7 6 6 5 5 4 3 2 1 0 0 0 0 0 0 0 0 0 0
2 2 1 1 1 1 2 3 3 3 2 2 2 3 4 4 4 4 5 5 6 6 6 6 7 7 8 8 8 8 7 6 5 3 3 2 2 1 1 1 1 0 0 0
2 2 1 1 1 2 3 4 4 3 3 4 4 4 5 5 5 6 6 7 7 7 7 7 7 7 8 9 10 9 9 8 8 7 7 6 4 3 3 3 2 2 2 2
3 2 2 1 1 2 3 5 5 4 4 5 6 6 6 6 6 7 8 9 9 9 9 9 9 9 9 9 10 10 10 10 10 10 9 8 7 6 6 5 5 4 4 3
3 3 2 1 1 2 3 5 5 5 4 6 7 7 7 7 7 8 9 10 10 10 10 10 10 10 10 10 10 10 10 10 10 11 11 10 9 8 8 7 6 6 5 5
3 2 2 2 2 2 3 5 5 4 5 6 7 8 7 7 8 9 10 11 11 11 11 11 11 11 10 10 10 10 9 10 10 11 11 11 11 10 8 7 6 5 5 4
3 3 3 3 2 3 4 4 4 4 5 7 7 8 8 8 9 9 10 11 11 11 11 11 11 11 11 11 11 11 10 10 10 11 11 11 11 10 9 8 6 5 4 4
4 4 4 4 4 4 5 5 5 6 7 7 8 8 8 8 9 10 10 10 10 10 11 11 11 11 11 12 12 12 12 11 11 10 10 10 10 10 10 9 7 6 5 5
6 6 5 5 6 6 7 7 7 7 8 8 9 8 9 9 9 10 10 10 10 10 10 10 11 11 11 12 12 12 12 12 12 11 10 10 10 10 10 10 9 7 6 6
7 6 6 5 6 7 7 8 8 8 8 9 9 9 9 9 10 10 10 10 11 10 11 11 10 11 11 12 12 12 12 13 13 12 11 10 9 9 10 10 10 9 8 7
7 7 6 5 6 7 7 8 8 8 8 9 9 9 10 10 10 10 11 11 11 11 11 11 11 11 11 12 12 12 12 13 13 12 12 11 10 9 10 10 10 9 8 7